Total_Precipitation_Accumulation
2.34 2.47 1.90 1.12 0.73 0.50 0.39 0.35 0.31 0.28 0.30 0.41 0.43 0.35 0.32 0.33 0.38 0.35 0.34 0.37 0.44 0.47 0.45 0.42 0.42 0.43 0.45 0.50 0.54 0.54 0.58 0.62 0.67 0.76 0.77 0.76 0.79 0.81 0.86 0.89 0.83 0.78 0.76 0.74
2.20 1.85 1.05 0.65 0.62 0.64 0.59 0.50 0.37 0.30 0.29 0.38 0.42 0.39 0.34 0.30 0.33 0.33 0.31 0.35 0.41 0.45 0.46 0.45 0.43 0.41 0.39 0.43 0.50 0.51 0.53 0.62 0.67 0.75 0.81 0.80 0.80 0.84 0.89 0.96 0.96 0.90 0.88 0.85
1.49 1.05 0.68 0.81 0.91 0.96 0.83 0.59 0.43 0.38 0.37 0.45 0.48 0.50 0.38 0.33 0.28 0.27 0.28 0.33 0.37 0.41 0.45 0.46 0.45 0.42 0.37 0.37 0.42 0.47 0.49 0.52 0.57 0.66 0.78 0.85 0.92 0.94 0.92 0.96 0.95 0.89 0.92 0.94
1.25 0.75 0.66 0.92 1.01 0.96 0.90 0.51 0.44 0.51 0.67 0.75 0.60 0.66 0.40 0.31 0.27 0.24 0.24 0.28 0.30 0.30 0.35 0.41 0.44 0.45 0.40 0.36 0.39 0.44 0.49 0.54 0.57 0.63 0.73 0.83 0.92 1.01 0.98 0.96 0.95 0.93 0.94 0.99
1.40 0.74 0.66 0.83 0.76 0.74 0.74 0.55 0.60 0.74 0.96 1.08 0.74 0.62 0.37 0.24 0.25 0.21 0.20 0.22 0.24 0.25 0.27 0.32 0.35 0.37 0.39 0.38 0.38 0.39 0.44 0.49 0.56 0.67 0.74 0.85 0.90 0.90 0.93 0.95 1.01 1.04 1.02 1.01
1.08 0.70 0.64 0.59 0.50 0.63 0.81 0.97 1.23 1.43 1.92 2.06 0.80 0.49 0.31 0.20 0.21 0.19 0.17 0.18 0.18 0.20 0.23 0.27 0.30 0.32 0.35 0.36 0.37 0.36 0.38 0.41 0.47 0.57 0.71 0.80 0.83 0.87 0.93 0.96 0.96 0.97 0.97 0.99
1.49 1.00 0.76 0.59 0.74 0.99 1.28 1.79 2.76 3.19 3.29 2.04 0.47 0.31 0.28 0.16 0.12 0.12 0.13 0.15 0.14 0.14 0.14 0.17 0.20 0.25 0.29 0.30 0.32 0.36 0.39 0.42 0.46 0.54 0.62 0.70 0.76 0.83 0.88 0.93 0.95 0.95 0.96 0.96
1.37 1.13 0.77 0.62 0.69 0.98 1.13 1.38 1.94 1.98 1.38 0.60 0.24 0.26 0.22 0.13 0.08 0.06 0.07 0.11 0.14 0.12 0.11 0.11 0.11 0.13 0.18 0.21 0.24 0.29 0.34 0.37 0.41 0.49 0.56 0.61 0.64 0.73 0.80 0.86 0.93 0.94 0.92 0.90
0.92 0.73 0.42 0.37 0.39 0.56 0.94 1.12 0.98 1.25 0.99 0.57 0.33 0.21 0.13 0.08 0.05 0.04 0.06 0.08 0.12 0.11 0.10 0.13 0.11 0.09 0.10 0.15 0.19 0.25 0.30 0.33 0.35 0.41 0.51 0.60 0.65 0.72 0.76 0.75 0.77 0.81 0.84 0.83
0.90 0.80 0.41 0.35 0.53 0.66 0.77 0.99 1.36 2.06 2.07 1.09 0.41 0.18 0.14 0.11 0.06 0.05 0.07 0.09 0.10 0.10 0.10 0.13 0.13 0.10 0.10 0.13 0.16 0.19 0.25 0.32 0.37 0.41 0.47 0.55 0.61 0.66 0.71 0.75 0.77 0.76 0.77 0.79
1.10 1.26 0.80 0.61 0.75 0.73 0.75 1.06 1.53 1.94 1.79 1.17 0.60 0.24 0.15 0.12 0.09 0.07 0.07 0.10 0.11 0.10 0.09 0.12 0.13 0.11 0.11 0.14 0.17 0.18 0.22 0.30 0.35 0.41 0.47 0.52 0.57 0.61 0.65 0.70 0.71 0.72 0.72 0.75
1.17 1.80 1.46 0.71 0.48 0.45 0.65 0.73 1.01 1.65 1.59 0.95 0.75 0.40 0.13 0.11 0.09 0.07 0.06 0.08 0.10 0.10 0.09 0.11 0.13 0.13 0.12 0.14 0.15 0.16 0.18 0.25 0.29 0.34 0.40 0.45 0.51 0.59 0.67 0.71 0.73 0.74 0.74 0.74
1.50 2.43 2.66 1.85 1.12 0.80 0.85 0.72 0.79 1.18 1.53 1.38 1.16 0.57 0.15 0.12 0.12 0.09 0.07 0.07 0.08 0.10 0.09 0.09 0.09 0.12 0.13 0.13 0.13 0.14 0.15 0.19 0.23 0.26 0.31 0.36 0.41 0.48 0.56 0.62 0.66 0.70 0.71 0.71
1.99 2.57 2.26 1.72 0.97 0.75 0.81 0.64 0.61 1.19 1.94 1.48 0.78 0.37 0.19 0.16 0.16 0.13 0.11 0.10 0.09 0.10 0.10 0.09 0.09 0.10 0.10 0.12 0.14 0.15 0.15 0.16 0.19 0.23 0.26 0.31 0.35 0.40 0.45 0.51 0.57 0.62 0.64 0.64
2.34 2.80 1.47 0.73 0.45 0.46 0.60 0.56 0.52 0.72 0.86 0.95 0.52 0.27 0.20 0.19 0.17 0.16 0.14 0.12 0.11 0.10 0.10 0.09 0.09 0.11 0.11 0.12 0.13 0.14 0.18 0.18 0.20 0.23 0.26 0.30 0.34 0.38 0.42 0.45 0.48 0.51 0.54 0.56
2.43 2.74 1.65 0.98 0.47 0.50 0.68 0.53 0.44 0.48 0.47 0.48 0.36 0.29 0.22 0.17 0.14 0.13 0.13 0.13 0.11 0.11 0.11 0.12 0.12 0.12 0.12 0.12 0.13 0.14 0.16 0.19 0.20 0.22 0.24 0.26 0.28 0.32 0.37 0.40 0.42 0.46 0.48 0.51
2.92 3.15 2.84 1.91 0.72 1.19 1.51 0.54 0.26 0.26 0.26 0.28 0.34 0.35 0.26 0.14 0.09 0.12 0.13 0.14 0.13 0.13 0.12 0.13 0.14 0.14 0.14 0.13 0.13 0.14 0.14 0.14 0.15 0.18 0.21 0.24 0.27 0.29 0.30 0.32 0.37 0.42 0.44 0.44
2.76 3.12 3.82 3.34 2.23 2.72 1.12 0.16 0.09 0.13 0.16 0.17 0.25 0.30 0.24 0.14 0.10 0.12 0.15 0.14 0.14 0.14 0.14 0.14 0.16 0.17 0.17 0.15 0.14 0.14 0.15 0.16 0.16 0.17 0.20 0.23 0.25 0.28 0.30 0.31 0.31 0.34 0.37 0.39
1.55 2.38 3.94 4.18 3.33 1.78 0.32 0.08 0.09 0.13 0.19 0.23 0.23 0.22 0.15 0.09 0.09 0.12 0.13 0.14 0.14 0.14 0.14 0.15 0.16 0.17 0.18 0.16 0.15 0.15 0.16 0.18 0.19 0.21 0.22 0.24 0.24 0.24 0.27 0.29 0.30 0.31 0.32 0.34
1.16 1.79 3.57 4.35 3.68 1.67 0.28 0.10 0.08 0.18 0.41 0.40 0.33 0.26 0.18 0.14 0.18 0.14 0.11 0.12 0.12 0.13 0.14 0.14 0.15 0.15 0.15 0.17 0.18 0.18 0.18 0.18 0.20 0.21 0.22 0.23 0.24 0.24 0.25 0.25 0.27 0.29 0.31 0.35
1.63 2.63 3.59 3.41 2.89 1.29 0.32 0.14 0.14 0.44 0.62 0.41 0.28 0.22 0.18 0.19 0.22 0.19 0.13 0.10 0.09 0.09 0.10 0.12 0.12 0.13 0.14 0.15 0.16 0.17 0.18 0.20 0.22 0.21 0.20 0.20 0.21 0.22 0.22 0.22 0.24 0.26 0.30 0.35
0.85 1.60 2.01 2.04 2.45 1.33 0.25 0.17 0.33 0.48 0.34 0.27 0.19 0.16 0.18 0.17 0.14 0.12 0.10 0.09 0.08 0.08 0.09 0.09 0.09 0.10 0.11 0.13 0.15 0.16 0.17 0.18 0.19 0.19 0.19 0.18 0.18 0.18 0.19 0.21 0.24 0.27 0.31 0.37
0.43 0.64 0.79 0.97 0.98 0.47 0.25 0.27 0.33 0.32 0.26 0.18 0.14 0.12 0.12 0.11 0.09 0.08 0.08 0.08 0.09 0.10 0.10 0.10 0.10 0.09 0.10 0.12 0.13 0.16 0.17 0.17 0.17 0.17 0.18 0.19 0.19 0.20 0.21 0.24 0.29 0.34 0.38 0.43
0.34 0.35 0.48 0.55 0.42 0.31 0.28 0.29 0.30 0.30 0.27 0.21 0.17 0.14 0.12 0.11 0.09 0.09 0.09 0.09 0.10 0.11 0.13 0.13 0.13 0.13 0.13 0.13 0.14 0.17 0.18 0.17 0.17 0.18 0.20 0.22 0.24 0.26 0.27 0.29 0.32 0.38 0.44 0.51
0.39 0.42 0.54 0.58 0.39 0.33 0.33 0.31 0.30 0.27 0.25 0.21 0.18 0.16 0.15 0.14 0.13 0.12 0.12 0.12 0.12 0.13 0.14 0.14 0.15 0.16 0.17 0.17 0.18 0.19 0.20 0.20 0.20 0.21 0.21 0.23 0.26 0.29 0.33 0.36 0.39 0.43 0.47 0.56
0.30 0.33 0.44 0.48 0.35 0.38 0.35 0.29 0.28 0.28 0.27 0.26 0.23 0.20 0.19 0.19 0.17 0.15 0.14 0.14 0.15 0.15 0.15 0.16 0.16 0.16 0.17 0.18 0.19 0.20 0.21 0.22 0.24 0.24 0.24 0.25 0.27 0.31 0.34 0.37 0.43 0.49 0.51 0.57